Location: Baptist Memorial Hospital
(34.4976°N, 89.0284°W)
Time: 09:24:48
(UTC+00:00)

CZ-4 R/B - Pass Details

Date: 29 October 2020
Orbit: 532 x 598 km, 97.7° (Epoch: 03 December)

Event Time Altitude Azimuth Distance (km) Brightness Sun altitude
Rises 23:45:14 0° 134° (SE) 2,703 4.5 -8.9°
Reaches altitude 10° 23:47:47 10° 117° (ESE) 1,804 3.5 -9.4°
Maximum altitude 23:50:37 20° 70° (ENE) 1,301 2.6 -10.0°
Drops below altitude 10° 23:53:26 10° 24° (NNE) 1,796 3.6 -10.6°
Sets 23:55:58 0° 6° (N) 2,686 4.7 -11.1°
